When you browse on this site, cookies collect data to enhance your experience and personalize the content and advertising you see.
Visit our Privacy Policy to learn more. By continuing to use the site, you agree to this use of cookies and data.
  • In Czech Republic
  • List of Countries
  • For 7 days
  • Water Temperature
  • Satellite Maps
  • Weather Map
  • Weather Widgets
  • user-avatar
    Login

    Hourly Weather Gaborone

    Today, 17 November, Saturday

    Time Temperature Precipitation Wind Pressure Humidity
    00:00 +29°C° 0 mm 3 mps 679 mmHg 22%
    01:00 +28°C° 0 mm 3 mps 678 mmHg 24%
    02:00 +28°C° 0 mm 3 mps 678 mmHg 26%
    03:00 +27°C° 0 mm 3 mps 678 mmHg 28%
    04:00 +26°C° 0 mm 2 mps 678 mmHg 30%
    05:00 +25°C° 0 mm 2 mps 678 mmHg 32%
    06:00 +27°C° 0 mm 2 mps 679 mmHg 31%
    07:00 +28°C° 0 mm 3 mps 679 mmHg 29%
    08:00 +29°C° 0 mm 3 mps 680 mmHg 28%
    09:00 +31°C° 0 mm 3 mps 680 mmHg 25%
    10:00 +34°C° 0 mm 3 mps 680 mmHg 22%
    11:00 +36°C° 0 mm 3 mps 680 mmHg 18%
    12:00 +38°C° 0 mm 2 mps 680 mmHg 16%
    13:00 +39°C° 0 mm 2 mps 679 mmHg 14%
    14:00 +41°C° 0 mm 1 mps 679 mmHg 12%
    15:00 +40°C° 0 mm 2 mps 678 mmHg 12%
    16:00 +40°C° 0 mm 2 mps 678 mmHg 12%
    17:00 +40°C° 0 mm 2 mps 677 mmHg 12%
    18:00 +38°C° 0 mm 2 mps 677 mmHg 14%
    19:00 +36°C° 0 mm 2 mps 677 mmHg 16%
    20:00 +34°C° 0 mm 2 mps 677 mmHg 18%
    21:00 +34°C° 0 mm 2 mps 677 mmHg 19%
    22:00 +32°C° 0 mm 2 mps 677 mmHg 19%
    23:00 +32°C° 0 mm 2 mps 678 mmHg 20%

    Tomorrow, 18 November, Sunday

    Time Temperature Precipitation Wind Pressure Humidity
    00:00 +31°C° 0 mm 3 mps 677 mmHg 22%
    01:00 +30°C° 0 mm 3 mps 677 mmHg 24%
    02:00 +30°C° 0 mm 4 mps 677 mmHg 25%
    03:00 +29°C° 0 mm 3 mps 677 mmHg 26%
    04:00 +28°C° 0 mm 3 mps 677 mmHg 27%
    05:00 +28°C° 0 mm 2 mps 677 mmHg 28%
    06:00 +29°C° 0 mm 3 mps 677 mmHg 26%
    07:00 +30°C° 0 mm 4 mps 678 mmHg 24%
    08:00 +32°C° 0 mm 4 mps 679 mmHg 22%
    09:00 +34°C° 0 mm 5 mps 679 mmHg 20%
    10:00 +36°C° 0 mm 5 mps 679 mmHg 19%
    11:00 +38°C° 0 mm 6 mps 679 mmHg 17%
    12:00 +39°C° 0 mm 5 mps 679 mmHg 16%
    13:00 +40°C° 0 mm 5 mps 678 mmHg 15%
    14:00 +41°C° 0 mm 4 mps 677 mmHg 14%
    15:00 +41°C° 0 mm 4 mps 677 mmHg 13%
    16:00 +41°C° 0 mm 4 mps 676 mmHg 13%
    17:00 +41°C° 0 mm 4 mps 676 mmHg 12%
    18:00 +38°C° 0 mm 4 mps 676 mmHg 14%
    19:00 +37°C° 0 mm 3 mps 676 mmHg 16%
    20:00 +35°C° 0 mm 3 mps 676 mmHg 17%
    21:00 +35°C° 0 mm 3 mps 676 mmHg 20%
    22:00 +34°C° 0 mm 4 mps 677 mmHg 23%
    23:00 +33°C° 0 mm 5 mps 677 mmHg 26%

    Day after tomorrow, 19 November, Monday

    Time Temperature Precipitation Wind Pressure Humidity
    00:00 +32°C° 0 mm 5 mps 677 mmHg 30%
    01:00 +30°C° 0 mm 6 mps 676 mmHg 34%
    02:00 +28°C° 0 mm 7 mps 676 mmHg 38%
    03:00 +28°C° 0 mm 6 mps 676 mmHg 41%
    04:00 +27°C° 0 mm 6 mps 677 mmHg 43%
    05:00 +26°C° 0 mm 6 mps 677 mmHg 46%
    06:00 +27°C° 0 mm 6 mps 677 mmHg 46%
    07:00 +27°C° 0 mm 7 mps 678 mmHg 45%
    08:00 +28°C° 0 mm 8 mps 679 mmHg 45%
    09:00 +29°C° 0 mm 8 mps 678 mmHg 41%
    10:00 +32°C° 0 mm 8 mps 678 mmHg 37%
    11:00 +34°C° 0 mm 7 mps 678 mmHg 34%
    12:00 +35°C° 0 mm 7 mps 678 mmHg 31%
    13:00 +36°C° 0 mm 7 mps 677 mmHg 28%
    14:00 +39°C° 0 mm 6 mps 676 mmHg 25%
    15:00 +39°C° 0 mm 6 mps 676 mmHg 23%
    16:00 +39°C° 0 mm 5 mps 675 mmHg 22%
    17:00 +39°C° 0 mm 5 mps 675 mmHg 21%
    18:00 +37°C° 0 mm 5 mps 675 mmHg 23%
    19:00 +36°C° 0 mm 5 mps 675 mmHg 26%
    20:00 +34°C° 0 mm 4 mps 675 mmHg 28%
    21:00 +33°C° 0 mm 5 mps 675 mmHg 31%
    22:00 +32°C° 0 mm 6 mps 675 mmHg 34%
    23:00 +30°C° 0 mm 7 mps 676 mmHg 36%

    20 November, Tuesday

    Time Temperature Precipitation Wind Pressure Humidity
    00:00 +29°C° 0.2 mm 6 mps 675 mmHg 41%
    01:00 +28°C° 0.2 mm 6 mps 675 mmHg 46%
    02:00 +27°C° 0.2 mm 5 mps 674 mmHg 51%
    03:00 +26°C° 0 mm 5 mps 674 mmHg 56%
    04:00 +25°C° 0 mm 5 mps 675 mmHg 60%
    05:00 +23°C° 0 mm 6 mps 675 mmHg 64%
    06:00 +24°C° 0 mm 6 mps 675 mmHg 61%
    07:00 +26°C° 0 mm 6 mps 676 mmHg 58%
    08:00 +27°C° 0 mm 7 mps 676 mmHg 55%
    09:00 +29°C° 0 mm 7 mps 676 mmHg 48%
    10:00 +32°C° 0 mm 7 mps 676 mmHg 40%
    11:00 +34°C° 0 mm 8 mps 676 mmHg 33%
    12:00 +36°C° 0 mm 7 mps 675 mmHg 28%
    13:00 +39°C° 0 mm 7 mps 674 mmHg 23%
    14:00 +41°C° 0 mm 7 mps 674 mmHg 18%
    15:00 +40°C° 0.1 mm 7 mps 673 mmHg 18%
    16:00 +39°C° 0.1 mm 7 mps 673 mmHg 19%
    17:00 +38°C° 0.1 mm 6 mps 672 mmHg 19%
    18:00 +35°C° 0 mm 6 mps 672 mmHg 21%
    19:00 +34°C° 0 mm 5 mps 672 mmHg 22%
    20:00 +33°C° 0 mm 4 mps 672 mmHg 24%
    21:00 +32°C° 0 mm 4 mps 673 mmHg 22%
    22:00 +30°C° 0 mm 3 mps 673 mmHg 21%
    23:00 +29°C° 0 mm 3 mps 674 mmHg 20%

    21 November, Wednesday

    Time Temperature Precipitation Wind Pressure Humidity
    00:00 +28°C° 0 mm 3 mps 673 mmHg 18%
    01:00 +27°C° 0 mm 2 mps 673 mmHg 17%
    02:00 +27°C° 0 mm 2 mps 673 mmHg 15%
    03:00 +26°C° 0 mm 2 mps 673 mmHg 16%
    04:00 +26°C° 0 mm 1 mps 674 mmHg 17%
    05:00 +25°C° 0 mm 1 mps 674 mmHg 18%
    06:00 +27°C° 0 mm 2 mps 674 mmHg 17%
    07:00 +28°C° 0 mm 2 mps 675 mmHg 17%
    08:00 +30°C° 0 mm 3 mps 676 mmHg 16%
    09:00 +31°C° 0 mm 3 mps 676 mmHg 14%
    10:00 +34°C° 0 mm 3 mps 676 mmHg 13%
    11:00 +35°C° 0 mm 3 mps 676 mmHg 11%
    12:00 +36°C° 0 mm 3 mps 676 mmHg 10%
    13:00 +38°C° 0 mm 4 mps 675 mmHg 9%
    14:00 +40°C° 0 mm 4 mps 674 mmHg 8%
    15:00 +40°C° 0 mm 4 mps 674 mmHg 8%
    16:00 +39°C° 0 mm 5 mps 674 mmHg 8%
    17:00 +39°C° 0 mm 5 mps 673 mmHg 8%
    18:00 +36°C° 0 mm 4 mps 673 mmHg 9%
    19:00 +34°C° 0 mm 3 mps 674 mmHg 10%
    20:00 +31°C° 0 mm 2 mps 674 mmHg 12%
    21:00 +30°C° 0 mm 2 mps 674 mmHg 12%
    22:00 +29°C° 0 mm 2 mps 674 mmHg 13%
    23:00 +28°C° 0 mm 2 mps 674 mmHg 13%

    22 November, Thursday

    Time Temperature Precipitation Wind Pressure Humidity
    00:00 +27°C° 0 mm 3 mps 674 mmHg 14%
    01:00 +26°C° 0 mm 3 mps 674 mmHg 15%
    02:00 +25°C° 0 mm 3 mps 673 mmHg 17%
    03:00 +24°C° 0 mm 3 mps 674 mmHg 18%
    04:00 +24°C° 0 mm 3 mps 674 mmHg 18%
    05:00 +22°C° 0 mm 3 mps 674 mmHg 19%
    06:00 +25°C° 0 mm 3 mps 675 mmHg 19%
    07:00 +27°C° 0 mm 3 mps 675 mmHg 18%
    08:00 +29°C° 0 mm 4 mps 676 mmHg 17%
    09:00 +30°C° 0 mm 4 mps 676 mmHg 18%
    10:00 +33°C° 0 mm 4 mps 676 mmHg 19%
    11:00 +35°C° 0 mm 4 mps 676 mmHg 20%
    12:00 +36°C° 0 mm 3 mps 675 mmHg 18%
    13:00 +37°C° 0 mm 3 mps 675 mmHg 16%
    14:00 +39°C° 0 mm 2 mps 675 mmHg 13%
    15:00 +39°C° 0 mm 2 mps 674 mmHg 12%
    16:00 +39°C° 0 mm 2 mps 674 mmHg 11%
    17:00 +39°C° 0 mm 2 mps 674 mmHg 9%
    18:00 +37°C° 0 mm 3 mps 674 mmHg 13%
    19:00 +35°C° 0 mm 3 mps 674 mmHg 17%
    20:00 +33°C° 0 mm 3 mps 674 mmHg 21%
    21:00 +30°C° 0 mm 3 mps 674 mmHg 27%
    22:00 +29°C° 0 mm 3 mps 674 mmHg 33%
    23:00 +28°C° 0 mm 3 mps 675 mmHg 39%
    Show more